Погода в Лайтяу

Вьетнам     22°23′59″N   103°27′09″E
темп.,
°C
ветер,
м/с
пор.,
м/с
влажн.,
%
обл.,
%
осадки,
мм/ч
давл.,
гПа
погр.,
м
18 мая, вт
вт1801:00+21юв1266100 0.0 100849
04:00+20юв128482 0.3 100840
07:00+21юз228776 0.7 1010115
10:00+25юз2373100 2.5 1010455
13:00+27юз2461100 5.0 10071415
16:00+24юз227787 2.1 1007406
19:00+20юв1189100 2.7 100728
22:00+20юв1184100 0.0 100822
19 мая, ср
ср1901:00+19ю118871 0.0 100730
04:00+18ююв129599 0.3 100744
07:00+20юз239160 0.4 1008149
10:00+25юз236899 0.6 1007784
13:00+29юз355064 0.9 10051945
16:00+25ююв236854 0.4 1004350
19:00+22вюв118197 0.5 100624
22:00+20юв12865 0.3 100841
20 мая, чт
чт2001:00+20ююв1187100 0.8 100621
04:00+19ю119211 0.0 100727
07:00+21юз12885 0.0 1008154
10:00+26юз33658 0.5 1007925
13:00+29юз245068 0.6 10051786
16:00+28юз235974 0.0 1003496
19:00+23ю017396 0.0 100519
22:00+22ююз017595 0.3 100620
21 мая, пт
пт2101:00+21юв1188100 3.4 100519
04:00+20ю129497 0.1 100534
07:00+21юз1292100 1.3 1007104
10:00+24юз2379100 2.4 1007379
13:00+26ююз2370100 4.8 1005659
16:00+29ююз1354100 0.4 1001965
19:00+23вюв227599 0.5 100328
22:00+22вюв227555 0.1 100530
22 мая, сб
сб2201:00+21юв1283100 0.5 100437
04:00+21ююз1291100 1.2 100441
07:00+21ююз2493100 2.7 1006124
10:00+25юз237884 2.8 1006446
13:00+27ююз2363100 4.0 10041176
16:00+28ю2259100 0.1 1001638
19:00+22вюв218799 0.3 100321
22:00+21вюв118983 1.4 100524